Theta_e
310 310 309 308 307 307 307 308 308 308 309 309 310 311 308 306 306 306 304 310 303 296 299 300 300 297 297 297 292 296 294 296 294 289 290 290 289 291 290 292 290 289 288 287 289 285 282 298 298 292 298 302 302 302
310 309 308 308 307 307 308 308 308 308 309 309 310 311 308 306 306 304 303 308 309 301 299 304 304 305 303 301 297 298 295 294 297 294 294 294 290 292 290 287 295 290 294 293 292 292 299 302 301 304 303 302 302 302
310 309 308 308 307 307 308 308 308 308 309 310 311 309 307 307 306 304 305 307 303 297 298 299 300 304 306 305 307 296 298 298 299 302 297 296 289 295 289 290 291 295 297 295 293 297 298 300 303 304 303 302 303 304
308 308 307 307 307 307 307 308 309 309 309 308 307 307 307 306 306 304 304 306 303 299 292 298 305 302 306 307 306 306 303 304 304 300 297 294 291 296 291 292 291 293 296 293 294 297 298 299 300 301 303 304 304 304
307 307 306 307 307 307 308 308 308 309 307 306 306 306 305 305 304 304 306 306 306 298 292 295 301 303 304 305 302 304 303 301 299 295 295 292 295 295 295 293 291 296 294 293 292 298 298 298 302 304 302 302 302 302
307 306 306 306 307 308 308 308 307 306 306 306 306 305 305 303 300 302 298 304 305 304 296 290 301 299 302 304 303 302 302 300 298 296 295 296 296 295 289 288 294 296 298 300 296 300 301 302 303 304 303 303 304 302
306 306 306 307 307 307 307 306 305 305 305 306 305 305 303 302 302 297 296 301 302 305 295 290 293 299 302 303 303 302 303 300 299 298 296 293 295 296 291 287 296 296 298 299 301 301 299 301 301 303 303 302 302 302
305 305 307 307 306 305 305 305 304 305 304 304 302 301 300 301 300 296 301 301 304 300 297 289 292 294 302 296 294 302 297 299 300 297 298 295 296 296 287 295 297 298 299 300 301 303 303 304 302 301 301 300 297 297
306 306 305 305 305 304 305 304 303 302 301 300 299 300 301 299 297 299 302 301 302 298 291 290 288 289 301 296 300 298 298 293 299 293 292 294 291 288 294 296 297 297 296 299 303 303 302 300 299 298 298 297 296 295
305 305 305 304 303 302 301 301 301 300 299 300 299 297 294 299 301 302 299 296 295 293 294 289 294 291 297 297 296 296 297 294 286 293 295 290 290 298 299 299 299 299 303 303 299 297 298 297 297 297 297 297 297 296
304 303 303 302 301 301 300 300 299 299 298 298 296 296 301 303 300 297 291 289 291 288 292 292 292 290 299 291 292 299 295 291 285 290 289 288 289 298 301 300 303 305 304 304 303 301 301 300 298 297 297 295 296 295
301 301 301 301 300 299 299 299 299 298 300 298 300 301 303 298 292 287 286 290 288 286 291 290 291 294 296 298 292 292 290 292 284 294 287 286 296 300 302 301 303 304 304 302 302 300 300 299 299 297 297 297 297 296
299 300 299 299 298 299 299 299 299 299 299 302 297 293 292 289 284 282 280 285 286 291 293 293 290 294 296 298 289 289 287 287 296 287 287 293 301 302 303 304 303 304 303 302 300 301 301 300 298 297 297 298 298 297
299 299 299 298 298 299 298 298 298 299 299 293 289 282 285 284 286 287 287 289 293 296 292 294 293 295 295 290 290 285 289 290 285 284 287 296 300 301 304 304 303 301 301 301 300 300 299 299 298 298 299 299 298 297
298 298 298 298 298 298 298 299 298 301 298 290 290 281 284 291 293 293 294 294 296 298 294 292 292 294 290 288 289 288 283 283 286 287 293 300 299 299 303 303 302 301 302 302 302 299 300 298 298 298 299 299 298 298
298 298 299 298 299 299 299 299 299 300 297 291 289 286 290 290 290 292 293 294 299 297 296 294 288 287 288 290 285 285 284 284 289 291 296 301 302 298 303 304 303 302 301 302 302 301 301 299 298 299 296 298 299 299
297 298 299 299 300 300 298 299 298 291 290 287 288 292 291 290 289 291 294 295 299 292 288 291 285 286 292 287 286 291 287 289 293 300 302 303 298 300 305 303 300 301 301 302 303 302 301 299 298 298 295 299 301 300
298 300 299 299 300 298 299 299 294 290 285 289 288 292 294 293 291 292 294 298 296 289 289 288 289 288 287 286 290 295 298 301 305 305 303 304 305 306 303 303 302 301 302 303 304 302 302 301 298 299 297 300 301 300
299 300 298 298 299 298 292 292 295 286 289 292 293 293 293 293 295 296 296 297 298 299 292 289 288 290 293 298 297 299 303 304 302 302 302 304 307 304 303 303 302 302 302 304 302 301 303 303 302 303 304 303 300 299
298 297 297 297 298 295 287 290 298 290 288 291 293 292 294 294 297 297 298 296 295 295 289 290 290 295 297 300 302 303 305 306 302 299 300 305 305 302 303 302 301 303 303 304 303 298 301 301 301 301 300 299 300 299
295 298 297 299 299 296 293 290 289 290 291 288 292 292 291 296 294 293 294 297 294 293 293 296 298 300 302 303 305 306 306 304 301 299 299 298 300 304 302 304 303 303 302 301 300 299 299 301 302 302 300 300 300 300
299 297 300 298 293 292 291 295 291 293 290 290 290 292 290 293 294 294 298 293 293 294 297 297 298 299 300 301 304 306 305 302 301 301 297 300 301 301 300 302 301 300 301 301 302 301 301 302 304 303 300 300 299 299
297 298 296 293 288 288 288 296 288 289 285 288 290 287 289 294 297 298 293 295 296 299 300 301 301 304 304 305 304 303 302 302 303 306 305 306 304 303 302 302 302 301 301 304 304 302 302 294 300 304 301 301 301 300
296 293 288 287 287 286 292 288 290 288 289 287 286 286 290 296 299 295 292 298 302 306 305 303 305 303 304 302 300 303 305 308 306 306 305 303 301 301 302 302 303 305 307 305 304 303 303 303 297 302 301 299 301 300
287 287 288 284 291 288 287 288 288 287 285 287 287 287 289 292 291 291 290 295 299 300 302 302 302 301 298 302 302 305 308 309 305 302 303 303 302 302 301 302 304 307 305 303 302 301 300 301 300 299 299 299 299 299
281 288 286 290 291 288 289 286 287 288 289 288 290 291 290 288 286 286 290 293 296 297 300 300 300 301 300 302 303 306 306 309 305 302 301 303 303 300 299 300 299 301 306 304 303 300 300 300 300 300 300 298 290 298
284 288 294 296 294 293 290 292 293 291 288 288 291 290 290 287 287 292 298 301 301 301 301 301 303 303 304 306 305 306 308 307 305 303 304 304 305 304 303 301 300 303 306 304 302 301 300 300 300 300 300 301 301 301
291 291 289 292 293 296 289 289 288 288 289 294 294 289 288 288 290 298 301 303 302 305 303 304 308 309 308 305 306 306 305 305 304 304 304 304 305 306 307 307 306 289 305 307 305 305 303 302 301 301 301 300 301 303
291 295 294 291 292 291 291 290 293 296 297 296 292 292 293 297 299 300 301 302 305 305 301 303 307 306 305 305 305 305 305 303 301 298 298 298 300 303 307 306 305 305 305 305 286 295 303 302 303 303 303 302 303 305
291 295 291 291 290 291 297 300 298 301 302 300 297 296 296 297 301 302 301 302 303 300 304 309 309 306 304 303 303 303 305 307 307 303 299 299 301 304 305 305 305 305 305 304 304 303 288 299 296 304 302 303 302 302
297 296 292 293 293 298 301 303 304 302 301 301 299 295 293 294 299 302 301 303 305 305 305 305 305 306 305 303 303 301 300 304 306 306 306 305 305 305 305 305 306 306 306 305 305 304 303 302 303 303 301 301 300 300
297 293 294 291 295 301 304 301 301 300 299 297 297 297 296 293 291 297 302 305 304 303 296 301 302 300 304 305 305 304 293 305 306 306 305 306 306 306 306 306 306 305 305 304 305 304 303 303 302 302 301 300 299 299
297 298 297 297 297 295 301 300 298 297 298 295 296 295 294 293 290 297 303 304 303 304 306 306 304 305 305 305 305 303 299 303 293 285 286 285 286 295 305 307 307 306 305 305 305 304 303 302 302 302 302 302 302 300
Wind_Speed
12 11 10 10 10 11 12 11 11 11 10 10 8 4 7 6 5 5 4 0 4 3 5 5 7 7 5 4 1 5 5 5 3 3 3 2 4 2 6 1 4 7 8 7 10 5 8 5 6 7 6 2 4 8
12 11 10 11 11 12 11 10 11 11 10 11 10 6 8 6 5 4 1 2 2 5 4 4 7 7 7 6 6 3 3 2 2 2 2 3 5 4 3 3 4 5 4 3 7 3 3 4 3 3 4 8 10 10
12 11 11 10 11 11 10 11 11 11 11 9 4 11 8 7 6 4 2 1 3 4 6 6 4 6 9 11 9 4 4 1 3 4 2 2 6 2 4 4 4 5 3 5 3 5 4 6 7 7 8 8 9 10
11 11 11 10 11 11 10 11 10 7 9 8 8 8 7 6 5 5 3 2 4 3 4 4 3 3 3 6 10 11 3 4 1 3 2 3 4 1 4 5 7 8 0 7 9 10 8 8 4 3 6 9 11 12
11 11 11 11 11 11 10 7 5 8 9 8 8 8 7 6 4 5 4 3 3 4 3 4 6 4 5 7 9 11 8 5 1 1 2 4 4 2 5 6 9 8 9 8 6 7 4 4 5 8 10 12 12 11
12 12 11 12 11 9 7 6 9 8 8 7 8 8 7 4 3 5 4 4 4 4 3 4 4 5 3 7 10 11 8 6 3 2 4 4 0 2 3 6 3 4 5 6 5 3 9 10 10 10 9 11 12 11
12 12 12 12 8 8 9 8 7 7 6 6 8 6 4 4 5 3 4 4 2 4 2 4 4 6 4 8 7 7 6 4 3 3 3 5 4 3 4 10 8 3 3 5 7 7 10 4 7 9 6 8 9 12
12 13 11 9 11 10 9 8 7 8 8 7 5 3 2 3 6 6 5 9 3 3 3 3 2 4 8 6 5 5 5 4 4 3 2 3 1 4 6 8 5 4 6 8 6 6 10 8 4 5 7 9 11 11
11 10 12 11 11 10 10 10 8 8 7 4 3 3 4 5 3 3 8 5 4 2 3 3 5 2 5 5 3 4 3 4 3 3 4 3 4 6 8 7 4 3 4 7 6 6 4 3 6 7 9 11 12 12
13 12 13 13 12 10 8 7 8 6 5 4 5 5 4 3 6 3 7 6 4 3 4 4 4 4 4 6 7 4 4 3 2 4 3 3 6 11 10 7 5 8 7 3 4 2 5 5 6 8 10 9 10 10
15 14 13 12 11 10 8 7 6 6 4 4 4 2 3 3 3 4 3 4 4 4 5 4 7 7 4 2 3 3 1 2 4 4 3 3 4 5 6 5 6 6 3 2 3 4 4 4 6 7 8 6 7 10
12 11 12 12 10 9 7 6 6 5 1 3 3 1 3 3 2 4 4 2 5 4 4 3 2 6 3 3 1 2 3 4 3 3 2 4 4 3 4 4 4 4 5 5 4 1 3 4 6 6 5 8 8 8
11 10 11 10 8 7 6 5 3 2 4 4 4 4 3 4 5 5 6 4 3 3 4 5 4 5 4 2 1 3 5 2 4 3 5 4 1 3 3 3 5 4 5 5 3 2 0 6 4 4 7 8 8 10
10 10 9 8 7 6 4 4 2 4 5 3 4 3 5 5 5 3 4 3 2 3 1 3 3 2 2 4 2 3 2 2 4 4 4 3 4 4 4 3 5 5 4 2 2 3 4 5 3 3 5 7 7 7
10 8 7 7 6 6 4 4 3 5 2 3 2 4 6 4 4 2 3 5 2 1 2 3 4 4 4 3 4 3 3 5 4 3 1 3 2 4 5 4 6 4 1 1 1 4 3 3 4 3 4 5 5 7
8 7 4 6 7 7 7 6 4 2 2 3 3 5 7 6 6 5 6 4 2 3 2 3 2 3 6 4 4 6 4 5 2 1 3 3 2 3 7 5 5 2 3 3 1 4 5 3 3 5 3 6 6 7
6 4 7 6 9 10 5 2 3 4 3 3 4 5 6 6 7 5 6 1 4 2 3 2 4 5 3 4 5 4 4 3 3 6 3 3 2 4 1 8 6 2 3 1 1 6 6 5 4 2 1 5 7 6
4 8 8 9 7 5 3 2 2 2 5 5 4 2 2 5 6 6 4 3 1 2 3 1 5 4 4 4 3 3 4 3 2 0 3 5 4 5 7 7 5 5 3 1 2 5 6 6 5 4 3 5 5 2
7 7 8 5 2 1 1 3 2 3 4 3 4 5 5 6 5 5 5 3 3 2 2 2 4 4 2 0 2 2 1 1 2 6 5 5 4 9 5 4 4 4 4 3 5 5 4 6 4 3 1 2 3 6
7 6 5 3 4 2 3 2 2 4 4 4 5 6 5 4 3 4 2 4 5 2 3 3 3 3 3 3 2 3 1 2 5 4 2 3 7 7 5 3 4 6 4 6 7 4 5 6 3 5 6 6 4 5
6 5 5 4 1 2 1 1 2 3 4 3 6 5 5 4 5 5 5 6 5 4 4 5 6 4 3 4 4 3 2 4 2 2 3 4 2 4 5 3 6 3 5 5 5 6 2 5 4 4 5 6 5 5
3 2 1 1 1 2 3 3 3 2 3 4 4 3 4 3 2 4 2 4 4 6 6 5 6 6 5 5 3 3 2 3 4 5 5 5 5 4 4 5 4 4 4 5 5 4 6 3 3 1 4 4 2 7
4 3 1 1 2 2 3 1 3 4 3 3 3 3 4 3 2 2 4 4 4 4 5 6 6 6 5 1 3 2 2 5 5 5 5 5 5 5 5 5 3 4 3 4 5 6 3 1 3 1 4 1 5 5
1 2 3 2 3 3 1 3 3 2 3 3 2 3 3 2 3 4 3 2 1 1 2 3 3 2 3 5 2 4 2 3 4 5 5 5 6 6 6 6 4 3 3 6 4 5 3 2 2 3 3 4 4 4
2 2 3 3 3 4 4 2 2 3 3 3 2 3 2 4 3 2 2 3 4 5 4 3 3 1 1 4 3 4 2 3 6 7 5 5 8 7 7 3 3 2 4 4 5 5 4 4 5 4 4 2 3 5
1 4 4 1 1 3 2 3 3 5 4 2 3 1 2 1 2 1 1 4 2 2 3 4 2 1 1 3 3 1 4 5 6 6 6 7 7 8 7 6 6 6 4 6 5 6 6 4 5 3 6 7 2 3
2 2 2 2 3 3 2 1 3 3 3 3 3 4 3 2 3 2 2 1 2 2 2 3 2 1 1 1 3 4 5 4 5 6 6 5 6 5 4 5 6 6 4 5 6 4 4 3 5 4 5 5 5 6
3 4 5 4 2 1 2 2 3 3 2 4 5 2 3 3 2 4 4 5 5 4 2 2 3 2 4 4 5 6 7 8 8 8 7 6 4 4 5 6 6 4 4 3 4 4 3 4 4 4 5 6 5 5
2 2 3 3 1 0 2 2 2 1 0 2 3 3 5 3 3 3 4 5 4 1 2 3 4 5 5 5 5 5 6 6 8 11 11 8 7 5 4 5 6 6 6 4 4 5 5 6 6 5 4 3 4 4
1 2 4 3 3 2 2 3 1 1 3 1 1 2 2 1 1 2 3 5 3 2 4 1 3 5 6 7 7 6 4 2 0 4 5 5 7 6 5 4 4 4 5 5 7 7 3 6 4 3 2 2 2 2
1 2 4 3 2 3 2 3 1 2 3 2 2 1 3 3 3 2 3 3 0 2 2 4 6 5 5 6 6 7 7 5 6 5 4 5 5 5 4 4 3 3 4 4 4 4 4 2 2 2 2 3 4 0
2 3 4 3 1 3 2 3 2 2 1 3 4 5 2 2 3 1 5 3 2 5 3 6 7 7 5 5 5 5 6 5 4 4 4 4 5 5 5 4 4 4 5 4 3 4 4 1 2 1 6 4 4 3
2 2 2 3 2 1 1 3 2 2 3 3 4 3 4 4 3 4 3 6 5 5 6 6 5 6 8 8 8 7 7 8 8 5 5 5 6 4 3 4 4 4 5 4 4 4 4 2 2 1 2 3 3 3
Wind_Direction
251 241 247 259 270 280 288 294 297 302 304 308 307 286 179 184 177 270 73 247 297 264 293 242 253 258 206 244 282 46 248 191 247 245 259 281 271 30 267 251 195 185 185 202 223 228 254 109 156 251 67 94 312 303
246 231 238 250 259 269 278 282 288 293 292 289 286 234 172 179 168 256 224 148 277 261 298 315 275 266 275 307 301 238 326 231 329 275 277 288 258 213 269 260 186 257 268 301 192 220 67 189 306 72 320 305 307 296
234 238 239 250 257 267 273 278 281 285 285 280 212 144 162 176 177 290 336 114 235 282 277 227 222 215 224 236 239 255 219 356 203 344 329 328 268 336 268 266 305 204 235 243 286 229 286 244 239 247 291 296 308 293
234 243 249 254 258 263 272 276 279 268 144 133 142 157 163 161 178 243 272 93 265 301 293 100 177 212 165 210 221 230 357 97 21 255 267 257 264 173 279 313 279 300 13 251 270 265 264 249 302 294 302 297 293 291
232 238 246 253 257 259 264 260 257 156 149 160 160 152 153 143 155 265 270 226 248 287 304 315 300 189 229 232 211 209 208 236 240 273 246 243 270 302 274 290 264 242 249 244 252 21 293 307 344 316 297 295 304 304
227 233 246 252 256 240 211 200 153 150 161 172 170 157 146 145 235 251 210 159 202 229 271 285 53 196 211 199 182 186 190 221 238 237 242 275 2 237 271 277 305 216 246 270 240 304 302 293 296 289 295 313 322 321
227 235 241 241 204 183 161 152 151 159 166 165 140 147 164 178 256 280 351 46 190 213 258 276 218 146 191 168 170 184 189 210 229 219 241 251 211 196 256 254 280 181 246 247 253 269 276 256 315 343 333 316 298 297
236 243 217 188 153 152 155 152 153 144 131 130 137 171 207 219 259 245 196 183 253 232 251 269 236 204 184 203 183 189 189 222 217 243 251 254 200 220 252 245 250 245 267 264 252 237 264 293 319 322 330 333 332 315
229 176 146 147 149 149 139 136 147 145 136 138 163 207 216 224 224 37 120 167 209 316 265 216 264 142 170 223 171 163 217 231 158 212 231 209 222 226 239 247 247 357 291 274 282 269 295 321 346 337 355 337 334 322
138 143 142 137 140 141 144 156 145 139 142 155 216 217 204 117 96 181 178 179 181 201 229 242 290 252 201 207 189 201 192 225 236 209 128 239 265 260 258 259 260 251 251 260 281 33 346 336 344 350 359 352 341 338
135 138 141 145 144 142 146 151 153 138 172 205 206 213 85 138 211 217 205 218 188 220 212 227 241 234 119 250 201 246 184 162 247 133 238 206 245 230 180 182 226 217 186 132 74 54 23 352 4 7 352 345 343 343
141 145 145 145 149 152 146 139 143 209 200 22 347 191 181 188 198 242 201 211 229 252 166 222 188 219 164 132 239 236 248 191 260 119 232 239 219 223 153 185 195 142 141 115 93 110 40 48 44 2 331 10 352 349
140 149 148 142 144 147 142 148 177 359 227 194 218 203 192 176 222 223 201 195 205 213 174 182 174 180 180 140 241 221 223 234 153 210 227 227 16 144 141 132 125 125 113 108 140 160 49 84 53 6 1 9 7 23
138 145 145 144 145 145 150 171 161 197 242 220 193 227 233 202 241 232 282 3 28 136 265 248 186 172 138 184 220 235 168 240 248 226 239 81 17 29 33 108 146 130 151 173 164 152 96 82 91 65 11 25 36 10
132 134 147 162 163 160 157 152 187 218 224 231 224 230 226 242 224 258 277 247 234 304 161 163 241 170 185 215 198 183 203 240 240 250 48 46 5 343 294 135 132 135 164 280 123 135 119 100 136 89 25 15 359 353
144 156 128 141 177 181 164 169 193 201 232 234 218 242 232 248 250 211 241 267 58 355 263 187 156 223 211 199 169 213 214 230 248 29 278 305 74 278 288 136 138 78 27 32 160 146 108 128 94 76 59 301 330 335
204 121 148 127 115 115 141 209 187 207 247 233 228 229 278 292 288 288 275 263 73 41 272 202 210 215 180 191 199 198 220 231 190 197 214 59 307 264 198 113 117 211 93 133 122 109 111 112 128 133 13 313 321 349
116 126 135 133 176 144 156 230 223 252 248 240 250 252 243 275 290 283 263 177 192 101 246 265 309 233 212 215 177 213 221 218 230 308 314 281 240 155 125 148 178 118 162 199 80 108 128 143 178 140 187 276 266 25
125 114 120 137 256 234 163 188 238 262 253 304 278 264 265 273 264 266 276 216 216 150 281 215 260 245 236 342 358 5 13 29 357 328 325 269 142 141 127 138 108 171 166 110 74 68 71 84 78 97 276 95 33 34
122 124 131 138 263 186 191 177 252 273 285 5 288 267 263 280 300 250 214 174 189 204 248 222 249 290 344 357 344 338 342 27 353 311 170 126 120 127 149 112 113 131 151 109 107 93 108 105 55 27 40 34 56 66
188 124 168 238 128 259 285 223 271 277 327 284 302 314 282 259 244 238 219 163 187 219 219 210 247 280 323 316 315 301 254 15 49 336 26 103 145 193 123 164 174 134 125 149 112 104 97 76 73 97 82 71 61 70
105 205 129 178 251 185 266 208 276 331 264 294 306 289 287 265 202 184 157 210 251 246 246 266 280 302 292 289 307 249 321 60 213 236 207 180 177 151 180 152 155 134 133 126 119 121 72 88 69 301 100 124 118 52
170 183 184 167 246 204 257 179 235 188 253 288 318 265 250 252 136 145 228 220 251 262 270 274 288 283 275 191 341 22 215 225 246 209 157 163 134 120 131 126 113 89 98 133 99 108 105 91 141 301 102 79 77 97
133 222 209 191 201 274 182 225 199 249 250 242 233 260 244 276 163 229 251 201 259 274 234 241 256 232 216 26 232 241 201 172 128 131 136 148 127 134 115 76 56 97 88 102 115 125 136 70 310 109 63 62 74 71
231 204 193 241 221 244 248 271 209 211 255 240 232 241 303 337 282 353 323 332 354 4 348 359 26 18 194 248 3 298 327 181 131 129 145 122 126 123 93 112 138 106 101 98 110 121 127 112 121 139 124 95 54 63
265 169 210 336 120 266 316 292 308 324 316 274 221 241 174 223 239 269 342 343 322 282 331 344 331 149 145 240 276 162 107 126 139 116 119 145 151 126 145 158 141 107 80 106 108 101 104 101 77 56 106 125 233 78
298 110 177 230 294 278 269 255 267 278 284 316 5 338 285 254 82 104 148 89 27 48 343 306 328 89 120 80 94 114 124 128 100 112 135 146 97 91 85 113 119 110 145 118 120 103 119 112 98 100 116 104 94 83
302 303 340 1 278 210 298 20 289 319 319 331 320 280 347 349 26 6 358 30 360 327 350 286 272 24 78 93 107 122 113 113 114 120 122 117 111 95 100 91 87 43 75 22 81 98 110 121 99 101 99 106 120 106
239 270 291 287 156 252 262 226 262 232 263 273 292 322 356 25 2 326 4 335 305 34 234 253 73 85 89 109 94 103 128 141 139 142 141 140 149 132 126 127 145 146 129 116 55 39 46 19 35 48 46 68 117 131
137 191 267 265 276 43 79 177 247 293 239 301 306 291 256 244 23 38 337 323 126 164 221 315 108 116 102 103 101 93 95 119 269 138 150 150 123 133 151 150 151 152 154 157 139 138 191 229 164 209 138 139 152 170
299 243 259 254 312 37 23 138 184 252 273 307 105 337 4 11 328 26 337 315 351 242 249 73 74 72 106 110 111 111 101 85 90 96 109 115 135 142 139 133 121 135 154 141 149 160 145 161 95 119 111 100 71 345
231 262 308 306 53 98 185 207 210 224 99 10 44 29 29 31 1 3 356 317 172 105 66 80 81 74 76 92 92 77 39 85 77 80 124 124 130 145 159 147 129 141 154 152 160 172 169 147 196 61 119 112 92 79
262 265 265 272 256 181 101 260 213 156 113 76 64 78 355 27 14 8 11 19 45 50 74 77 79 82 70 68 78 90 82 76 71 46 35 9 351 329 241 184 156 176 176 190 173 152 198 200 187 151 90 35 56 107